map of LFSI home
LFSI - Airport
Location
City:  St-Dizier, Champagne-Ardenne, France
Name:St-Dizier-Robinson AB
ICAO:LFSI

Details
Type:Airport (Aerodrome, Airfield)
Use:Military
Latitude:4838'01"N (48.633536)
Longitude:454'29"E (4.908189)
Elevation:458 ft (140 m)
Variation:1.47E (WMM2015 magnetic declination)
0.13 annual change
Runways:1
Longest:7920 × 148 ft (2414 × 45 m)

Time
Time Zone:UTC+1 (DST+2)
Local Time:

Weather
METAR:LFSI 191330Z AUTO 04012KT 9999 FEW026 BKN032 OVC038 05/M01 Q1010
TAF:LFSI 190800Z 1909/2009 09010KT 9999 BKN010 BKN015
BECMG 1910/1912 BKN030 BKN050
TEMPO 1914/1916 SHRA
TEMPO 1916/1919 4000 -SHRASN
TEMPO 1919/1924 1000 -SHSN BKN010 BKN015 BKN050
TEMPO 2003/2009 1000 -SN BKN010 BKN050

Related Locations
Nearby:
Farthest:CHT: 12091 mi / 19458 km
Waitangi [Tuuta], CIT, NZ

Find:

   beyond  
but within

Other Information
Maps:
NOTAMs:
Links:
Sources:

  
  • flag of France
  • flag of Champagne-Ardenne
  

Sectional Chart

Flight Planning
at skyvector.com

Satellite Image

Google Maps Satellite view

 

Copyright © 2004-2018 Karl L. Swartz. All rights reserved.
The Great Circle Mapper name and logo are trademarks of the Great Circle Mapper.
All other trademarks mentioned herein belong to their respective owners.
Please see credits for attibutions and further copyright information.

  Follow gcmap on Facebook Follow gcmap on Twitter Follow gcmap on Google+ GCmap on LinkedIn

hCard Microformat

Geo Microformat